Miscellaneous Local Product
Issued by NWS Hastings, NE

Home | Current Version | Previous Version | Graphics & Text | Print | Product List | Glossary On
Versions: 1 2 3 4 5 6 7 8 9 10 11 12 13 14 15 16 17 18 19 20 21 22 23 24 25 26 27 28 29 30 31 32 33 34 35 36 37 38 39 40 41 42 43 44 45 46 47 48 49 50
000
AXUS43 KGID 231002
MISGRI

GID CWA HOURLY WEATHER ROUNDUP
NATIONAL WEATHER SERVICE HASTINGS NE
500 AM CDT MON APR 23 2018

NOTE: "FAIR" INDICATES FEW OR NO CLOUDS BELOW 12,000 FEET WITH NO
SIGNIFICANT WEATHER AND/OR OBSTRUCTIONS TO VISIBILITY.

...SOUTH CENTRAL NEBRASKA...

CITY           SKY/WX    TMP DP  RH WIND       PRES   REMARKS
GRAND ISLAND   CLOUDY    45  38  76 N6        30.17S
KEARNEY        CLOUDY    44  38  79 CALM      30.18R
HASTINGS       CLOUDY    47  41  80 CALM      30.17R
ORD            FAIR      31  30  96 CALM      30.17R
YORK             N/A     39  32  75 CALM      30.17S
AURORA         CLEAR     43  31  64 E6        30.17S
LEXINGTON      MOCLDY    36  34  92 W3        30.17S
HOLDREGE       PTCLDY    38  35  91 NW5       30.16S WCI  34
HEBRON         CLEAR     39  35  85 CALM      30.16S

...NEBRASKA PANHANDLE...

CITY           SKY/WX    TMP DP  RH WIND       PRES   REMARKS
CHADRON        FAIR      39  34  82 S5        30.09S
ALLIANCE       FAIR      32  32 100 SE6       30.10F WCI  26
SCOTTSBLUFF    FAIR      37  35  92 E12       30.10S WCI  29
SIDNEY         FAIR      35  32  88 S8        30.11F WCI  29

...WESTERN AND NORTH CENTRAL NEBRASKA...

CITY           SKY/WX    TMP DP  RH WIND       PRES   REMARKS
VALENTINE      FAIR      40  36  86 CALM      30.14S
AINSWORTH      FAIR      36  35  94 S5        30.16S WCI  32
ONEILL         FAIR      44  36  74 SE3       30.18R
BROKEN BOW     FAIR      34  32  92 CALM      30.16S
IMPERIAL       FAIR      35  34  96 CALM      30.15F
NORTH PLATTE   FAIR      31  29  92 CALM      30.17S FOG
MCCOOK         FAIR      33  33 100 CALM      30.16S FOG

...EASTERN NEBRASKA...

CITY           SKY/WX    TMP DP  RH WIND       PRES   REMARKS
NORFOLK        CLEAR     36  32  85 CALM      30.17S
SO SIOUX CITY  PTCLDY    36  33  89 NW5       30.20R WCI  32
TEKAMAH        CLEAR     34  32  92 N8        30.18F WCI  27
COLUMBUS       CLEAR     39  30  70 CALM      30.19R
ALBION         PTCLDY    43  34  70 CALM      30.18S
OMAHA EPPLEY   CLEAR     37  28  70 N7        30.17S WCI  32
OFFUTT AFB     CLEAR     35  28  75 NE3       30.16S
MILLARD        CLEAR     44  32  63 CALM      30.17F
LINCOLN        CLEAR     38  30  73 N5        30.18S WCI  34
NEBRASKA CITY  CLOUDY    47  31  53 N3        30.16S
BEATRICE       PTCLDY    42  33  70 CALM      30.16S
FALLS CITY     PTCLDY    49  30  48 N5        30.13S

...NORTHERN KANSAS...

CITY           SKY/WX    TMP DP  RH WIND       PRES   REMARKS
GOODLAND       FAIR      35  32  88 SW7       30.15F WCI  29
HILL CITY      CLOUDY    39  37  92 W7        30.17S WCI  34
NORTON         CLOUDY    39  36  87 SW3       30.17R
PHILLIPSBURG   MOCLDY    43  37  81 W5        30.17R
SMITH CENTER   CLEAR     46  39  76 N7        30.16S
BELOIT         CLEAR     43  37  81 CALM      30.15S
HAYS           CLOUDY    47  41  80 NW6       30.16R
RUSSELL        CLOUDY    48  43  82 N7        30.13R
CONCORDIA      PTCLDY    39  35  86 CALM      30.14S
SALINA         CLEAR     43  40  89 NW7       30.14R
TOPEKA         CLEAR     51  37  58 N8        30.10R



USA.gov is the U.S. government's official web portal to all federal, state and local government web resources and services.